Location: Estes Park
(40.3770°N, 105.5210°W)
Time: 11:00:04
(UTC-07:00)

Vanguard 2 - Visible Passes

Search period start: 25 February 2018 00:00
Search period end: 07 March 2018 00:00
Orbit: 553 x 2939 km, 32.9° (Epoch: 24 February)

Date Brightness Start Highest point End Pass type
(mag) Time Alt. Az. Time Alt. Az. Time Alt. Az.
25 Feb 9.2 19:25:01 10° W 19:34:23 43° SSW 19:37:51 25° SE visible
25 Feb 10.5 21:38:25 10° WSW 21:39:18 12° WSW 21:39:18 12° WSW visible
26 Feb 9.2 19:43:22 10° W 19:52:10 37° SSW 19:55:07 26° SSE visible
27 Feb 9.5 20:01:50 10° W 20:09:51 30° SSW 20:12:24 24° S visible
28 Feb 9.7 18:06:58 10° W 18:19:21 52° SSW 18:26:49 10° ESE visible
28 Feb 9.8 20:20:29 10° W 20:27:25 23° SW 20:29:42 20° S visible
01 Mar 9.8 18:25:18 10° W 18:37:14 47° SSW 18:44:31 10° SE visible
01 Mar 10.1 20:39:33 10° WSW 20:44:52 17° SW 20:47:03 15° SSW visible
02 Mar 10.0 18:43:42 10° W 18:55:00 41° SSW 19:02:05 10° SE visible
02 Mar 10.5 20:59:52 10° WSW 21:02:13 11° SW 21:04:19 10° SSW visible
03 Mar 10.2 19:02:13 10° W 19:12:39 33° SSW 19:19:27 10° SSE visible
04 Mar 10.4 19:20:56 10° W 19:30:10 26° SW 19:36:32 10° SSE visible
05 Mar 10.6 19:40:01 10° W 19:47:34 20° SW 19:53:10 10° S visible
06 Mar 10.8 19:59:55 10° WSW 20:04:51 14° SW 20:08:55 10° SSW visible
